一网星座-0259星 (ONEWEB-0259 )

导读 | 星芒AI

ONEWEB-0259 是 OneWeb 卫星星座计划中的一颗低轨通信卫星,旨在为全球提供高速互联网服务。该卫星采用标准化设计,由阿丽亚娜集团制造,于2022年发射入轨。它运行在约1200公里高度的近极地轨道,与其他 OneWeb 卫星共同构建全球宽带网络,重点服务于航空、航海及偏远地区用户。该星座计划由数百颗卫星组成,致力于实现全球覆盖和低延迟通信。

基本信息
目录编号:
48977
目录名称:
ONEWEB-0259
国际标识:
2021-060L
轨道中心:
EARTH
卫星名称:
一网星座-0259星
卫星全名:
一网星座-0259星 (ONEWEB-0259 )
卫星状态:
在轨 (已飞行1628 天)
发射日期:
2021-07-01 UTC
国别 :
英国 (GB)
星等 :
--
轨道信息
数据来源 国际轨道数据 AOE轨道数据
星历时间 2025-12-15T03:19:45+0800
23小时前
查看轨道信息
2025-12-14T07:00:00+0800
1天前
查看轨道信息
半长轴 7575.89km 7575.881km
偏心率 0.0001779 0.0001681
轨道倾角 87.905° 87.906°
近地点辐角 68.787° 59.941°
升交点赤经 265.494° 265.663°
平近点角 291.345° 247.700°
近地点 1196.407km 1196.472km
远地点 1199.103km 1199.02km
周期 109.373分钟 109.373分钟
每日圈数 13.165953 13.165978
详细信息
平衡模式:
三轴稳定
覆盖范围:
全球
运营商:
一网卫星公司
运营商所在国:
英国
制造商(研发单位):
一网卫星公司
制造商所在国:
英国
使用方式:
暂无
卫星简介
OneWeb卫星网络由648颗重约125公斤的微型卫星组成,运行在1200公里的轨道上。 每颗卫星都能够提供至少每秒8千兆位的吞吐量,以使用其高吞吐量的Ku频段有效载荷为家庭和移动平台提供互联网接入。该卫星仍在工作。
2D轨道图
3D轨道图
轨道高度分析图
轨道倾角分析图
轨道综合分析图
查看轨道综合分析图